Content
SEND FEEDBACK

Daily
Averages
Monthly
Summary
United States of America

HARTSHORNE, OKLAHOMA


Home > North America > United States > Oklahoma
Elevation: 650 feet     Latitude: 34 40N     Longitude: 095 34W

WEATHER
 
SELECT A DAY
Number of Records: 198,075;   Date Range: 1/1/95 - 7/7/14
 
SHARE

PRINT THIS DATA

[ ← Previous Day ]
WEATHER ALMANAC - FEBRUARY 13, 2013
[ Next Day → ]
[ °C ]   °F
Weather ElementAverageHighLow
Temperature41.8 °F55.9 °F (4:53 pm)35.1 °F (11:53 pm)
Dewpoint33.2 °F36 °F (11:53 am)28 °F (5:53 pm)
Humidity74.3 %93 % (3:24 am)37 % (4:53 pm)
Barometer30.04 in30.11 in (8:53 am)29.97 in (4:53 pm)
Wind Speed6.8 mph11.5 mph (3:53 pm)
Wind Gust17.3 mph (1:53 pm)
Weather ElementAverage
Visibility10 mi
Wind DirectionWSW (257.8 °)

Weather ElementTotal
Precipitation---
Heating Degree Days19.5 (Base 65)
Averaged from 27 records on February 13, 2013
WEATHER CONDITIONS BREAKOUT
WIND DIRECTION BREAKOUT
WEATHER BY HOUR - FEBRUARY 13, 2013
[ °C ]   °F
Local TimeTemperatureDewpointHumidityBarometerVisibilityWind DirectionWind SpeedGust SpeedPrecipitationEventsConditions
1:53 AM36.0 °F33.1 °F89 %30.02 in10.0 miNNW (330°)10.4 mphOvercast
2:53 AM36.0 °F33.1 °F89 %30.03 in10.0 miNW (320°)10.4 mphOvercast
3:24 AM35.6 °F33.8 °F93 %30.03 in10.0 miNW (320°)6.9 mphOvercast
3:53 AM36.0 °F33.1 °F89 %30.04 in10.0 miNW (320°)10.4 mphOvercast
4:53 AM36.0 °F34.0 °F93 %30.05 in10.0 miNW (310°)8.1 mphOvercast
5:53 AM36.0 °F34.0 °F93 %30.06 in10.0 miWest (280°)4.6 mphOvercast
6:04 AM35.6 °F33.8 °F93 %30.05 in10.0 miWNW (290°)4.6 mphOvercast
6:53 AM37.0 °F34.0 °F89 %30.07 in10.0 miWest (280°)5.8 mphOvercast
7:53 AM37.0 °F35.1 °F93 %30.09 in10.0 miWNW (290°)4.6 mphOvercast
8:53 AM39.0 °F35.1 °F86 %30.11 in10.0 miWNW (290°)5.8 mphOvercast
9:03 AM39.2 °F35.6 °F87 %30.10 in10.0 miWest (280°)5.8 mphOvercast
9:53 AM39.9 °F34.0 °F79 %30.11 in10.0 miWSW (250°)6.9 mphOvercast
10:36 AM42.8 °F33.8 °F70 %30.09 in10.0 miWest (260°)6.9 mphPartly Cloudy
10:53 AM43.0 °F35.1 °F74 %30.09 in10.0 miWSW (250°)6.9 mphClear
11:53 AM48.0 °F36.0 °F63 %30.09 in10.0 miSSW (210°)8.1 mphPartly Cloudy
12:53 PM50.0 °F36.0 °F59 %30.06 in10.0 miSW (220°)9.2 mphPartly Cloudy
1:53 PM53.1 °F35.1 °F50 %30.02 in10.0 miWSW (250°)8.1 mph17.3 mphClear
2:53 PM54.0 °F34.0 °F47 %30.00 in10.0 miSW (230°)9.2 mphScattered Clouds
3:53 PM55.0 °F33.1 °F43 %29.99 in10.0 miWSW (240°)11.5 mph17.3 mphPartly Cloudy
4:53 PM55.9 °F30.0 °F37 %29.97 in10.0 miWSW (240°)9.2 mphClear
5:53 PM53.1 °F28.0 °F38 %29.98 in10.0 miWSW (250°)4.6 mphClear
6:53 PM43.0 °F28.9 °F58 %29.99 in10.0 miSSW (210°)3.5 mphScattered Clouds
7:53 PM39.0 °F32.0 °F76 %30.01 in10.0 miSSW (210°)3.5 mphPartly Cloudy
8:53 PM36.0 °F30.9 °F82 %30.02 in10.0 miSSW (200°)4.6 mphClear
9:53 PM41.0 °F32.0 °F70 %30.02 in10.0 miSSW (210°)4.6 mphClear
10:53 PM37.0 °F32.0 °F82 %30.03 in10.0 miSW (220°)3.5 mphClear
11:53 PM35.1 °F30.9 °F85 %30.03 in10.0 miSSW (200°)4.6 mphClear
Hourly data recorded from KMLC, located miles away from Hartshorne, Oklahoma







STORIES FROM OUR PARTNERS